Satellite: PO-28
Catalog number: 22829
Epoch time:      08009.51968101
Element set:    0846
Inclination:      098.3436 deg
RA of node:       337.8385 deg
Eccentricity:    0.0009415
Arg of perigee:   347.5001 deg
Mean anomaly:     012.5947 deg
Mean motion:   14.30177024 rev/day
Decay rate:       -2.9e-07 rev/day^2
Epoch rev:           74530
Checksum:              307

Satellite: GO-32
Catalog number: 25397
Epoch time:      08009.79435597
Element set:     497
Inclination:      098.3872 deg
RA of node:       052.6572 deg
Eccentricity:    0.0001408
Arg of perigee:   029.0155 deg
Mean anomaly:     331.1119 deg
Mean motion:   14.23137024 rev/day
Decay rate:        6.4e-07 rev/day^2
Epoch rev:           49354
Checksum:              308

Satellite: MO-46
Catalog number: 26548
Epoch time:      08009.17131771
Element set:    0995
Inclination:      064.5580 deg
RA of node:       265.3902 deg
Eccentricity:    0.0010849
Arg of perigee:   346.0502 deg
Mean anomaly:     014.0308 deg
Mean motion:   14.83217058 rev/day
Decay rate:       1.11e-06 rev/day^2
Epoch rev:           39408
Checksum:              292

Satellite: NO-44
Catalog number: 26931
Epoch time:      08009.48665137
Element set:     776
Inclination:      067.0531 deg
RA of node:       336.0587 deg
Eccentricity:    0.0004809
Arg of perigee:   268.8950 deg
Mean anomaly:     091.1603 deg
Mean motion:   14.29508255 rev/day
Decay rate:        6.9e-07 rev/day^2
Epoch rev:           32758
Checksum:              331

Satellite: SO-50
Catalog number: 27607
Epoch time:      08008.73592875
Element set:    0500
Inclination:      064.5566 deg
RA of node:       180.9046 deg
Eccentricity:    0.0076827
Arg of perigee:   311.6767 deg
Mean anomaly:     047.7797 deg
Mean motion:   14.71317263 rev/day
Decay rate:        6.0e-08 rev/day^2
Epoch rev:           27136
Checksum:              328

Satellite: CO-55
Catalog number: 27844
Epoch time:      08009.69237062
Element set:    0208
Inclination:      098.7182 deg
RA of node:       020.1626 deg
Eccentricity:    0.0009325
Arg of perigee:   213.4057 deg
Mean anomaly:     146.6527 deg
Mean motion:   14.20553910 rev/day
Decay rate:        6.6e-07 rev/day^2
Epoch rev:           23479
Checksum:              299

Satellite: CO-57
Catalog number: 27848
Epoch time:      08009.52832968
Element set:    0164
Inclination:      098.7175 deg
RA of node:       019.1311 deg
Eccentricity:    0.0009276
Arg of perigee:   218.2630 deg
Mean anomaly:     141.7891 deg
Mean motion:   14.20367062 rev/day
Decay rate:        4.5e-07 rev/day^2
Epoch rev:           23474
Checksum:              313

Satellite: AO-51
Catalog number: 28375
Epoch time:      08009.50800746
Element set:    0003
Inclination:      098.0882 deg
RA of node:       042.9220 deg
Eccentricity:    0.0083449
Arg of perigee:   277.8356 deg
Mean anomaly:     081.3369 deg
Mean motion:   14.40593226 rev/day
Decay rate:        7.0e-08 rev/day^2
Epoch rev:           18541
Checksum:              305

Satellite: CO-56
Catalog number: 28941
Epoch time:      08009.95392764
Element set:    0759
Inclination:      098.1078 deg
RA of node:       100.0964 deg
Eccentricity:    0.0195178
Arg of perigee:   255.9526 deg
Mean anomaly:     101.9945 deg
Mean motion:   15.48170777 rev/day
Decay rate:     2.4080e-04 rev/day^2
Epoch rev:           10533
Checksum:              346

Satellite: HO-59
Catalog number: 29484
Epoch time:      08010.48547109
Element set:      25
Inclination:      098.2565 deg
RA of node:       099.2466 deg
Eccentricity:    0.0144226
Arg of perigee:   232.5616 deg
Mean anomaly:     126.2411 deg
Mean motion:   15.69626701 rev/day
Decay rate:     7.3646e-04 rev/day^2
Epoch rev:            7338
Checksum:              325

Satellite: NO-61
Catalog number: 29664
Epoch time:      07359.16654419
Element set:     738
Inclination:      051.6179 deg
RA of node:       150.0690 deg
Eccentricity:    0.0003189
Arg of perigee:   248.8461 deg
Mean anomaly:     111.8136 deg
Mean motion:   16.51627846 rev/day
Decay rate:  1.4620719e-01 rev/day^2
Epoch rev:            5877
Checksum:              345

Satellite: CP4
Catalog number: 31122
Epoch time:      08010.66030627
Element set:     232
Inclination:      098.0626 deg
RA of node:       081.9945 deg
Eccentricity:    0.0086623
Arg of perigee:   101.3584 deg
Mean anomaly:     259.7361 deg
Mean motion:   14.55074694 rev/day
Decay rate:       5.52e-06 rev/day^2
Epoch rev:            3902
Checksum:              286

Satellite: CP3
Catalog number: 31128
Epoch time:      08010.69388476
Element set:     227
Inclination:      098.0596 deg
RA of node:       080.6836 deg
Eccentricity:    0.0103815
Arg of perigee:   104.8389 deg
Mean anomaly:     256.4371 deg
Mean motion:   14.51902757 rev/day
Decay rate:       -4.6e-07 rev/day^2
Epoch rev:            3893
Checksum:              321

